Weather History for Burns, OR

Change the Weather History Date:

Friday, December 7, 2012

  Actual Average Record
Temperature  
Mean Temperature 29 °F 25 °F  
Max Temperature 37 °F 35 °F 57 °F (1957)
Min Temperature 20 °F 15 °F -20 °F (2013)
Degree Days  
Heating Degree Days 36 40  
Month to date heating degree days 194 273  
Since 1 July heating degree days 1868 2274  
Cooling Degree Days 0 0  
Month to date cooling degree days 0 0  
Year to date cooling degree days 309 215  
Moisture  
Dew Point 22 °F    
Average Humidity 73    
Maximum Humidity 92    
Minimum Humidity 54    
Precipitation  
Precipitation 0.00 in 0.05 in 0.62 in (1948)
Month to date precipitation 0.65 0.35  
Year to date precipitation 9.25 9.72  
Sea Level Pressure  
Sea Level Pressure 30.15 in    
Wind  
Wind Speed 5 mph (SSW)    
Max Wind Speed 16 mph    
Max Gust Speed 21 mph    
Visibility 10 miles    
Events      
T = Trace of Precipitation, MM = Missing Value Source: NWS Daily Summary

Daily Weather History Graph

Daily Weather History Graph

Search for Another Location

Airport:

Trip Planner

Search our weather history database for the weather conditions in past years. The results will help you decide how hot, cold, wet, or windy it might be!

Date:

Astronomy

Dec. 07, 2012 Rise Set
Actual Time 7:15 AM PST 4:19 PM PST
Civil Twilight 6:43 AM PST 4:51 PM PST
Nautical Twilight 6:07 AM PST 5:27 PM PST
Astronomical Twilight 5:32 AM PST 6:02 PM PST
Moon 12:30 AM PST (12/7) 12:27 PM PST (12/7)
Length of Visible Light 10h 08m
Length of Day
9h 03m
Last Quarter, 37% of the Moon is Illuminated
Dec 7
Last Quarter
Dec 13
New
Dec 19
First Quarter
Dec 28
Full
Jan 4
Last Quarter

Hourly Weather History & Observations

Time (PST) Temp. Windchill Dew Point Humidity Pressure Visibility Wind Dir Wind Speed Gust Speed Precip Events Conditions
12:53 AM 23.0 °F 15.8 °F 19.9 °F 88% 30.21 in 10.0 mi SSE 5.8 mph - N/A   Clear
1:53 AM 21.9 °F - 19.9 °F 92% 30.21 in 10.0 mi Calm Calm - N/A   Clear
2:53 AM 21.9 °F 17.2 °F 19.0 °F 89% 30.22 in 10.0 mi North 3.5 mph - N/A   Clear
3:53 AM 19.9 °F 14.9 °F 18.0 °F 92% 30.22 in 10.0 mi South 3.5 mph - N/A   Clear
4:53 AM 19.9 °F 14.9 °F 17.1 °F 89% 30.22 in 10.0 mi NNW 3.5 mph - N/A   Clear
5:53 AM 21.0 °F 14.6 °F 18.0 °F 88% 30.22 in 10.0 mi North 4.6 mph - N/A   Mostly Cloudy
6:53 AM 21.9 °F - 19.0 °F 89% 30.23 in 10.0 mi Calm Calm - N/A   Overcast
7:53 AM 23.0 °F 18.4 °F 19.9 °F 88% 30.21 in 10.0 mi North 3.5 mph - N/A   Partly Cloudy
8:53 AM 25.0 °F - 21.9 °F 88% 30.21 in 10.0 mi Calm Calm - N/A   Clear
9:53 AM 28.9 °F - 25.0 °F 85% 30.19 in 10.0 mi Calm Calm - N/A   Mostly Cloudy
10:53 AM 33.1 °F - 26.1 °F 75% 30.17 in 10.0 mi Calm Calm - N/A   Clear
11:53 AM 36.0 °F 29.6 °F 25.0 °F 64% 30.13 in 10.0 mi South 8.1 mph - N/A   Clear
12:53 PM 36.0 °F 33.3 °F 23.0 °F 59% 30.11 in 10.0 mi SSW 3.5 mph - N/A   Clear
1:53 PM 37.0 °F 31.0 °F 23.0 °F 57% 30.09 in 10.0 mi SSW 8.1 mph - N/A   Clear
2:53 PM 36.0 °F 28.5 °F 21.9 °F 57% 30.09 in 10.0 mi SW 10.4 mph - N/A   Clear
3:53 PM 36.0 °F 29.0 °F 23.0 °F 59% 30.11 in 10.0 mi WSW 9.2 mph - N/A   Clear
4:53 PM 34.0 °F 26.6 °F 24.1 °F 67% 30.11 in 10.0 mi SW 9.2 mph - N/A   Clear
5:53 PM 32.0 °F 26.4 °F 24.1 °F 73% 30.11 in 10.0 mi NE 5.8 mph - N/A   Clear
6:53 PM 30.9 °F 24.3 °F 24.1 °F 76% 30.11 in 10.0 mi SSE 6.9 mph - N/A   Partly Cloudy
7:53 PM 30.9 °F 25.2 °F 25.0 °F 79% 30.11 in 10.0 mi ESE 5.8 mph - N/A   Overcast
8:53 PM 32.0 °F 28.7 °F 25.0 °F 75% 30.10 in 10.0 mi Variable 3.5 mph - N/A   Overcast
9:53 PM 33.1 °F 23.4 °F 25.0 °F 72% 30.09 in 10.0 mi SSW 13.8 mph - N/A   Overcast
10:53 PM 32.0 °F 24.8 °F 26.1 °F 79% 30.08 in 10.0 mi South 8.1 mph - N/A   Overcast
11:53 PM 32.0 °F 23.6 °F 25.0 °F 75% 30.09 in 10.0 mi SSW 10.4 mph - N/A   Overcast